Tracking 30995 objects as of 7-Jul-2025
HD Live streaming from Space Station
objects crossing your sky now

STARLINK-4211

Track STARLINK-4211 now!
10-day predictions
STARLINK-4211 is classified as:


NORAD ID: 52873
Int'l Code: 2022-062AV
Perigee: 546.0 km
Apogee: 547.8 km
Inclination: 53.2 °
Period: 95.4 minutes
Semi major axis: 6917 km
RCS: Unknown
Launch date: June 17, 2022
Source: United States (US)
Launch site: AIR FORCE EASTERN TEST RANGE (AFETR)
Your satellite tracking list
Your tracking list is empty




NASA's NSSDC Master Catalog

Two Line Element Set (TLE):
1 52873U 22062AV  25187.87248020 -.00000229  00000-0  36911-5 0  9990
2 52873  53.2189  37.6373 0001245  88.2844 271.8291 15.08836918169443
Source of the keplerian elements: AFSPC